Volver al catálogo

HAISHAO 1

ActivoCienciaVLEO
NORAD 62190·PAYLOAD·🇨🇳 China

Lanzado Dec 4, 2024 desde Xichang Satellite Launch Center

Loading…

Próximos Pases (próximas 24 horas)

TLE

ActualizadoSource: Space-Track

Época: Sep 14, 2026, 06:25 UTC

1 62190U 24228A   26257.26800330  .00021836  00000-0  21935-3 0  9993
2 62190  42.9780 192.6236 0003610 242.0030 118.0470 15.65030645101547

Sigue HAISHAO 1 en tiempo real con AllMySat

Download on the App Store